Hourly Data Report for October 02, 2022

TORONTO INTL A
ONTARIO
Current Station Operator: NAVCAN

43°40'36.000" N
79°37'50.000" W
173.40 m
6158731
71624
YYZ

Download Data

Hourly Data (October 2022)
Hourly Data Report for October 2, 2022
TIME
LST
Temp Definition
°C
Dew Point Definition
°C
Rel Hum Definition
%
Precip. Amount Definition
mm

Wind Dir Definition
10's deg

Wind Spd Definition
km/h
Visibility Definition
km
Stn Press Definition
kPa
Hmdx Definition


Wind Chill Definition


Weather Definition


00:00 11.6 5.6 66   3 24 24.1 100.29     LegendNANA
01:00 10.9 4.7 65   3 21 24.1 100.30     Mainly Clear
02:00 10.6 3.8 63   2 23 24.1 100.33     LegendNANA
03:00 10.0 2.2 58   2 27 24.1 100.38     LegendNANA
04:00 9.4 2.0 60   2 25 24.1 100.42     Mostly Cloudy
05:00 8.8 1.7 61   4 20 24.1 100.47     LegendNANA
06:00 7.3 1.1 65   4 24 24.1 100.57     LegendNANA
07:00 6.9 1.0 66   2 22 24.1 100.65     Clear
08:00 7.8 0.8 61   4 27 24.1 100.69     LegendNANA
09:00 9.0 0.5 55   2 25 24.1 100.72     LegendNANA
10:00 10.4 -0.3 48   5 19 24.1 100.73     Clear
11:00 12.2 -2.4 36   6 19 24.1 100.74     LegendNANA
12:00 13.4 -1.5 36   1 18 24.1 100.71     LegendNANA
13:00 14.7 -0.8 35   5 17 24.1 100.68     Clear
14:00 15.4 -0.2 34   2 17 24.1 100.62     LegendNANA
15:00 15.4 1.0 37   1 12 24.1 100.60     LegendNANA
16:00 15.2 0.4 36   36 23 24.1 100.62     Clear
17:00 14.0 1.0 41   35 22 24.1 100.63     LegendNANA
18:00 12.7 1.0 44   1 17 24.1 100.67     LegendNANA
19:00 11.7 0.8 47   6 9 24.1 100.71     Clear
20:00 10.9 1.1 51   2 11 24.1 100.75     LegendNANA
21:00 10.5 0.9 51   2 14 24.1 100.77     LegendNANA
22:00 9.2 0.6 55   4 13 24.1 100.78     Clear
23:00 8.8 0.0 54   5 7 24.1 100.83     LegendNANA

Notes on Data Quality.

Legend

  • E = Estimated
  • M = Missing
  • NA = Not Available*
  • [empty] = Indicates an unobserved value
Date modified: